Waarnemingen

Advertentie
Mijn weer
Lakaträsk, Zweden (2174): temperatuur & dauwpunt: 12.01.2021 04:00:00 - 18.01.2021 04:00:00 (CET)Lakaträsk, Zweden (2174): windsnelheid & windstoten: 12.01.2021 04:00:00 - 18.01.2021 04:00:00 (CET)Lakaträsk, Zweden (2174): windrichting: 12.01.2021 04:00:00 - 18.01.2021 04:00:00 (CET)Lakaträsk, Zweden (2174): luchtdruk: 12.01.2021 04:00:00 - 18.01.2021 04:00:00 (CET)Lakaträsk, Zweden (2174): zicht: 12.01.2021 04:00:00 - 18.01.2021 04:00:00 (CET)Lakaträsk, Zweden (2174): neerslag: 12.01.2021 04:00:00 - 18.01.2021 04:00:00 (CET)
Datum & Tijd tt [°C] td [°C] ff [km/u] ff [kn] fx [km/u] fx [kn] dd ppp [hPa] vv [km] rr [mm]
18.01.2021 04:00:00 -22,7 -28,6 - - 1 1 N 1009,9 - 0,0
18.01.2021 03:00:00 -22,5 -27,8 - - 2 1 N 1010,2 50 0,0
18.01.2021 02:00:00 -24,7 -30,4 - - 1 1 N 1010,6 50 0,0
18.01.2021 01:00:00 -24,8 -31,0 - - 1 1 N 1010,9 50 0,0
18.01.2021 00:00:00 -24,6 -30,7 - - 1 0 N 1011,3 50 0,0
17.01.2021 23:00:00 -24,1 -29,8 - - 3 1 N 1011,7 50 0,0
17.01.2021 22:00:00 -23,6 -29,2 - - 2 1 N 1012,1 50 0,0
17.01.2021 21:00:00 -23,5 -29,3 - - 1 0 N 1012,4 50 0,0
17.01.2021 20:00:00 -23,1 -28,5 - - 1 1 N 1012,6 50 0,0
17.01.2021 19:00:00 -22,9 -28,3 - - 1 1 N 1012,7 50 0,0
17.01.2021 18:00:00 -22,3 -28,1 - - 1 1 N 1012,8 50 0,0
17.01.2021 17:00:00 -21,7 -26,8 - - 1 1 N 1013,0 50 0,0
17.01.2021 16:00:00 -21,5 -27,0 - - 2 1 N 1013,0 24 0,0
17.01.2021 15:00:00 -20,8 -26,2 - - 1 1 N 1013,1 50 0,0
17.01.2021 14:00:00 -19,7 -25,6 - - 0 0 N 1013,3 50 0,0
17.01.2021 13:00:00 -18,9 -24,4 - - 1 1 N 1013,8 50 0,0
17.01.2021 12:00:00 -17,9 -23,4 - - 2 1 N 1014,1 50 0,0
17.01.2021 11:00:00 -18,1 -23,2 - - 2 1 N 1014,6 50 0,0
17.01.2021 10:00:00 -19,0 -24,6 - - 1 1 N 1014,7 50 0,0
17.01.2021 09:00:00 -20,0 -25,1 - - 2 1 N 1014,7 50 0,0
17.01.2021 08:00:00 -21,2 -26,7 - - 3 2 N 1014,9 49 0,0
17.01.2021 07:00:00 -21,8 -27,7 - - 1 1 N 1015,0 50 0,0
17.01.2021 06:00:00 -22,7 -28,3 - - 1 1 N 1015,3 50 0,0
17.01.2021 05:00:00 -23,0 -28,4 - - 1 1 N 1015,5 2,5 0,0
17.01.2021 04:00:00 -22,9 -28,9 - - 1 1 N 1015,9 50 0,0
17.01.2021 03:00:00 -22,6 -28,8 - - 1 1 N 1016,3 50 0,0
17.01.2021 02:00:00 -22,1 -27,2 - - 1 1 N 1016,8 50 0,0
17.01.2021 01:00:00 -22,4 -27,9 - - 1 1 N 1017,2 33 0,0
17.01.2021 00:00:00 -22,0 -27,1 - - 1 1 N 1017,8 50 0,0
16.01.2021 23:00:00 -21,8 -27,1 - - 3 1 N 1018,3 50 0,0
16.01.2021 22:00:00 -21,7 -27,2 - - 1 1 N 1018,6 50 0,0
16.01.2021 21:00:00 -21,1 -26,3 - - 1 1 N 1018,8 50 0,0
16.01.2021 20:00:00 -20,6 -25,8 - - 1 1 N 1019,0 50 0,0
16.01.2021 19:00:00 -19,9 -25,0 - - 1 1 N 1019,3 50 0,0
16.01.2021 18:00:00 -19,6 -24,5 - - 0 0 N 1019,6 50 0,0
16.01.2021 17:00:00 -19,4 -24,3 - - 2 1 N 1019,9 50 0,0
16.01.2021 16:00:00 -19,0 -24,1 - - 3 2 N 1020,1 50 0,0
16.01.2021 15:00:00 -18,5 -23,6 - - 2 1 N 1020,3 50 0,0
16.01.2021 14:00:00 -18,3 -23,1 - - 1 1 N 1020,7 50 0,0
16.01.2021 13:00:00 -17,7 -22,7 - - 1 1 N 1021,0 50 0,0
16.01.2021 12:00:00 -17,4 -22,2 - - 2 1 N 1021,4 50 0,0
16.01.2021 11:00:00 -17,6 -22,8 - - 2 1 N 1021,7 50 0,0
16.01.2021 10:00:00 -17,2 -22,2 - - 2 1 N 1021,8 50 0,0
16.01.2021 09:00:00 -15,9 -21,0 - - 3 2 N 1022,0 40 0,0
16.01.2021 08:00:00 -16,5 -21,2 0 0 0 0 N 1022,0 50 0,0
16.01.2021 07:00:00 -17,3 -22,0 0 0 3 1 N 1022,0 50 0,0
16.01.2021 06:00:00 -18,0 -23,0 0 0 3 2 N 1022,1 50 0,0
16.01.2021 05:00:00 -17,7 -22,5 0 0 2 1 N 1022,4 47 0,0
16.01.2021 04:00:00 -17,9 -22,7 0 0 2 1 N 1022,5 50 0,0
16.01.2021 03:00:00 -17,5 -22,0 0 0 2 1 N 1022,3 50 0,0
16.01.2021 02:00:00 -17,2 -22,0 0 0 4 2 N 1022,2 50 0,0
16.01.2021 01:00:00 -17,0 -21,7 0 0 5 3 N 1022,2 50 0,0
16.01.2021 00:00:00 -17,0 -21,7 0 0 4 2 N 1022,5 50 0,0
15.01.2021 23:00:00 -16,6 -21,3 0 0 4 2 N 1022,7 50 0,0
15.01.2021 22:00:00 -16,5 -21,2 0 0 3 2 N 1022,4 50 0,0
15.01.2021 21:00:00 -16,3 -21,0 0 0 5 3 N 1022,3 1,4 0,0
15.01.2021 20:00:00 -16,1 -20,6 0 0 5 3 N 1021,9 50 0,0
15.01.2021 19:00:00 -15,6 -20,2 0 0 4 2 N 1021,8 50 0,0
15.01.2021 18:00:00 -15,8 -20,2 0 0 3 2 N 1021,7 50 0,0
15.01.2021 17:00:00 -15,9 -20,4 0 0 2 1 N 1021,4 50 0,0
15.01.2021 16:00:00 -16,3 -20,8 0 0 3 2 N 1021,4 50 0,0
15.01.2021 15:00:00 -15,9 -20,3 0 0 2 1 N 1021,4 50 0,0
15.01.2021 14:00:00 -15,5 -20,1 0 0 4 2 N 1021,3 50 0,0
15.01.2021 13:00:00 -14,7 -19,3 0 0 4 2 N 1021,4 50 0,0
15.01.2021 12:00:00 -14,0 -18,4 0 0 4 2 N 1021,6 50 0,0
15.01.2021 11:00:00 -12,3 -16,8 0 0 3 2 N 1021,7 50 0,0
15.01.2021 10:00:00 -11,2 -15,6 0 0 3 1 N 1021,8 50 0,0
15.01.2021 09:00:00 -11,8 -15,8 0 0 5 3 N 1021,6 50 0,0
15.01.2021 08:00:00 -14,0 -18,3 2 1 4 2 ZO 1021,6 50 0,0
15.01.2021 07:00:00 -12,2 -16,7 - - 4 2 N 1021,4 50 0,0
15.01.2021 06:00:00 -12,5 -16,7 - - 4 2 N 1021,5 50 0,0
15.01.2021 05:00:00 -12,6 -17,1 - - 3 2 N 1021,6 50 0,0
15.01.2021 04:00:00 -14,0 -19,0 - - 3 1 N 1022,0 50 0,0
15.01.2021 03:00:00 -14,6 -19,7 - - 4 2 N 1022,4 50 0,0
15.01.2021 02:00:00 -16,1 -21,2 - - 2 1 N 1022,8 50 0,0
15.01.2021 01:00:00 -16,6 -21,3 - - 3 1 N 1023,1 50 0,0
15.01.2021 00:00:00 -17,9 -22,7 0 0 4 2 N 1023,7 34 0,0
14.01.2021 23:00:00 -20,7 -26,6 0 0 1 1 N 1024,2 29 0,0
14.01.2021 22:00:00 -21,5 -27,2 0 0 3 2 N 1024,4 36 0,0
14.01.2021 21:00:00 -23,6 -29,8 0 0 3 1 N 1024,7 50 0,0
14.01.2021 20:00:00 -24,0 -30,5 0 0 2 1 N 1025,1 50 0,0
14.01.2021 19:00:00 -23,8 -29,9 0 0 1 1 N 1025,2 50 0,0
14.01.2021 18:00:00 -24,6 -30,9 0 0 1 1 N 1025,7 50 0,0
14.01.2021 17:00:00 -25,5 -31,7 0 0 1 1 N 1025,9 50 0,0
14.01.2021 16:00:00 -25,0 -31,6 0 0 2 1 N 1026,2 50 0,0
14.01.2021 15:00:00 -25,4 -31,2 0 0 1 1 N 1026,5 41 0,0
14.01.2021 14:00:00 -26,7 -33,0 0 0 1 1 N 1026,6 49 0,0
14.01.2021 13:00:00 -26,6 -32,9 0 0 3 2 N 1026,9 50 0,0
14.01.2021 12:00:00 -26,8 -33,1 0 0 3 1 N 1027,2 50 0,0
14.01.2021 11:00:00 -28,0 -34,1 0 0 2 1 N 1027,7 50 0,0
14.01.2021 10:00:00 -27,2 -33,9 0 0 1 1 N 1027,9 50 0,0
14.01.2021 09:00:00 -25,0 -31,0 0 0 1 1 N 1028,0 36 0,0
14.01.2021 08:00:00 -25,8 -31,3 0 0 3 2 N 1027,9 29 0,3
14.01.2021 07:00:00 -26,5 -32,3 0 0 2 1 N 1028,1 47 0,0
14.01.2021 06:00:00 -28,7 -34,7 0 0 2 1 N 1028,4 50 0,0
14.01.2021 05:00:00 -30,6 -36,7 0 0 6 3 N 1028,9 50 0,0
14.01.2021 04:00:00 -33,3 -39,6 0 0 3 2 N 1029,3 50 0,0
14.01.2021 03:00:00 -34,8 -41,4 0 0 3 2 N 1029,5 50 0,0
14.01.2021 02:00:00 -34,7 -40,9 0 0 4 2 N 1029,8 50 0,0
14.01.2021 01:00:00 -34,3 -40,4 0 0 4 2 N 1030,0 50 0,0
14.01.2021 00:00:00 -34,0 -40,3 3 1 5 3 ONO 1030,1 50 0,0
13.01.2021 23:00:00 -33,7 -39,8 2 1 4 2 NNO 1030,3 50 0,0
13.01.2021 22:00:00 -32,9 -39,2 2 1 4 2 WNW 1030,1 50 0,0
13.01.2021 21:00:00 -32,3 -38,3 4 2 6 4 NO 1030,2 50 0,0
13.01.2021 20:00:00 -32,8 -38,8 4 2 5 3 NO 1030,0 50 0,0
13.01.2021 19:00:00 -32,2 -38,0 2 1 7 4 N 1029,8 50 0,0
13.01.2021 18:00:00 -31,6 -37,1 3 2 5 3 NO 1029,9 47 0,0
13.01.2021 17:00:00 -30,6 -36,2 3 2 6 3 ONO 1029,8 50 0,0
13.01.2021 16:00:00 -29,8 -35,4 0 0 6 3 N 1029,7 50 0,0
13.01.2021 15:00:00 -28,6 -34,3 0 0 4 2 N 1029,2 50 0,0
13.01.2021 14:00:00 -26,5 -32,8 0 0 4 2 N 1029,2 50 0,0
13.01.2021 13:00:00 -23,1 -28,9 0 0 10 5 N 1028,9 13 0,0
13.01.2021 12:00:00 -22,5 -28,0 5 3 10 5 NNO 1029,0 44 0,0
13.01.2021 11:00:00 -22,1 -27,8 5 3 9 5 NNO 1028,5 50 0,0
13.01.2021 10:00:00 -20,4 -26,0 0 0 14 7 N 1028,0 27 0,0
13.01.2021 09:00:00 -20,0 -25,1 4 2 11 6 NO 1027,3 24 0,0
13.01.2021 08:00:00 -20,2 -25,1 6 3 17 9 NNO 1026,8 29 0,0
13.01.2021 07:00:00 -20,1 -24,8 8 4 17 9 NO 1026,0 42 0,0
13.01.2021 06:00:00 -19,9 -24,6 7 4 18 10 NNO 1025,3 36 -
13.01.2021 05:00:00 -19,4 -24,1 5 3 20 11 NNO 1024,7 26 0,0
13.01.2021 04:00:00 -19,2 -23,9 7 4 19 10 NO 1024,0 36 -
13.01.2021 03:00:00 -18,9 -23,5 7 4 20 11 NO 1023,3 14 -
13.01.2021 02:00:00 -18,0 -22,6 7 4 17 9 NNO 1022,3 13 0,0
13.01.2021 01:00:00 -17,3 -22,0 4 2 14 7 N 1021,6 6 0,0
13.01.2021 00:00:00 -16,8 -21,1 4 2 17 9 ONO 1020,7 7 0,0
12.01.2021 23:00:00 -16,5 -20,7 7 4 18 10 NO 1019,7 5 0,0
12.01.2021 22:00:00 -15,6 -20,2 5 3 16 9 NNO 1018,8 4,4 0,0
12.01.2021 21:00:00 -15,0 -19,2 6 3 26 14 ONO 1017,9 7 0,0
12.01.2021 20:00:00 -14,5 -18,6 5 3 23 12 ONO 1016,7 4,4 0,0
12.01.2021 19:00:00 -14,1 -17,9 8 4 29 16 ONO 1015,9 4,3 0,0
12.01.2021 18:00:00 -13,9 -17,5 12 6 32 18 ONO 1014,8 7 0,0
12.01.2021 17:00:00 -13,4 -16,9 13 7 27 15 O 1014,5 6 0,0
12.01.2021 16:00:00 -13,0 -16,7 9 5 24 13 ONO 1014,0 3,6 0,0
12.01.2021 15:00:00 -13,1 -16,6 9 5 37 20 ONO 1013,5 3,2 0,0
12.01.2021 14:00:00 -13,0 -16,3 12 6 31 17 ONO 1013,4 3,5 0,0
12.01.2021 13:00:00 -12,7 -15,9 14 7 35 19 O 1013,3 3,0 0,0
12.01.2021 12:00:00 -12,7 -15,9 11 6 32 17 O 1013,3 2,1 0,0
12.01.2021 11:00:00 -12,6 -15,9 10 5 37 20 O 1013,4 2,3 0,0
12.01.2021 10:00:00 -12,1 -15,1 19 10 34 18 O 1013,1 2,5 0,0
12.01.2021 09:00:00 -11,4 -14,6 14 7 35 19 O 1012,5 3,9 0,0
12.01.2021 08:00:00 -10,5 -13,6 16 9 37 20 O 1011,6 3,4 0,0
12.01.2021 07:00:00 -9,9 -12,7 18 10 32 17 O 1011,4 9 0,0
12.01.2021 06:00:00 -10,3 -13,2 17 9 31 17 O 1011,3 4,3 0,0
12.01.2021 05:00:00 -10,5 -13,6 13 7 34 18 ONO 1011,4 0,9 0,1
12.01.2021 04:00:00 -10,4 -13,5 10 6 30 16 ONO 1011,7 3,1 0,0

tt = temperatuur
td = dauwpunt
ff = windsnelheid
fx = windstoten
dd = windrichting
ppp = luchtdruk
vv = zicht
rr = neerslag

Weerstations in de omgeving